Flag for Portugal Weather past 2 weeks in Beja, Portugal

Now
52 °F

Scattered clouds.


Feels Like: 47 °F
Forecast: N/A
Wind: 16 mph from Northwest

Location: Beja Airport

Current Time: Feb 1, 2015 at 4:55:39 PM

Latest Report: Feb 1, 2015 at 4:00 PM


Visibility: N/A

Pressure: 30.15 "Hg

Humidity: 58%

Dew point: 37 °F

Location of BejaLocation

Historic Weather in Beja — Graph

°F

Beja temperature yesterday

Maximum temperature yesterday: 55 °F (at 12:00 AM)
Minimum temperature yesterday: 41 °F (at 11:00 PM)
Average temperature yesterday: 52 °F

Past Weeks' High & Low Weather Summary

 TemperatureHumidityPressure
High64 °F (Jan 25, 4:00 PM)100% (Jan 18, 2:00 AM)30.42 "Hg (Jan 18, 2:00 AM)
Low34 °F (Jan 25, 7:00 AM)34% (Jan 25, 4:00 PM)29.71 "Hg (Jan 31, 6:00 AM)
Average48 °F85%30.15 "Hg
* Reported Jan 17 3:00 PM — Feb 1 3:00 PM, Beja, Weather by CustomWeather, © 2014

Note: Actual official high and low records may vary slightly from our data, if they occured in-between our weather recording intervals... More about our weather records

Advertising

Beja weather history for previous 24 hours

 ConditionsComfort  
Time TempWeatherWind HumidityBarometerVisibility
3:00 PM
Feb 1
52 °FScattered clouds.14 mph62%30.18 "HgN/A
2:00 PM52 °FScattered clouds.14 mph62%30.18 "HgN/A
1:00 PM52 °FScattered clouds.17 mph58%30.21 "HgN/A
12:00 PM50 °FPassing clouds.14 mph71%30.21 "HgN/A
11:00 AM46 °FPassing clouds.13 mph87%30.21 "HgN/A
10:00 AM43 °FFog.12 mph93%30.21 "HgN/A
9:00 AM39 °FFog.10 mph100%30.18 "HgN/A
8:00 AM36 °FLight fog.9 mph100%30.15 "HgN/A
7:00 AM37 °FLight fog.10 mph100%30.15 "Hg6 mi
6:00 AM37 °FLight fog.13 mph100%30.12 "Hg5 mi
5:00 AM37 °FFog.8 mph100%30.12 "HgN/A
4:00 AM37 °FFog.12 mph100%30.09 "HgN/A
3:00 AM39 °FClear.10 mph93%30.12 "Hg10 mi
2:00 AM39 °FClear.9 mph100%30.12 "Hg10 mi
1:00 AM41 °FClear.10 mph93%30.09 "Hg10 mi
12:00 AM43 °FClear.13 mph87%30.09 "Hg10 mi
11:00 PM
Jan 31
41 °FClear.10 mph93%30.07 "Hg10 mi
10:00 PM43 °FClear.12 mph87%30.07 "Hg10 mi
9:00 PM45 °FClear.12 mph81%30.04 "Hg10 mi
8:00 PM46 °FClear.14 mph76%30.01 "Hg10 mi
7:00 PM48 °FPassing clouds.12 mph76%29.98 "HgN/A
6:00 PM48 °FPassing clouds.13 mph76%29.95 "HgN/A
5:00 PM50 °FPassing clouds.18 mph71%29.92 "HgN/A
4:00 PM48 °FScattered showers. Scattered clouds.15 mph94%29.89 "HgN/A
Weather by CustomWeather, © 2014

See weather overviewHow to use our weather pages